Eugene, Missouri, United States (65032)
Lat: 38.35N, Lon: 92.4W
Wx Zone: MOZ048
Local Info
Past Weather Observations for Today

NOTE: This archive is for the closest National Weather Service station to Eugene. Information may differ from the station used for current weather conditions.

Click here for Long-term Archive

Time Weather Temperature Dewpoint Humidity Pressure Winds Precip Visibility
07:15
Overcast
63°F / 17°C 59°F / 15°C 88% 29.98 in
(1015 mb)
ESE 6.9 mph
(ESE 11 kph)
0.08 in
(2.03 mm)
4SM
06:55
Mostly Cloudy
63°F / 17°C 59°F / 15°C 88% 30.01 in
(1016 mb)
ESE 3.5 mph
(ESE 6 kph)
0.11 in
(2.79 mm)
3SM
06:35
Mostly Cloudy
63°F / 17°C 59°F / 15°C 88% 29.98 in
(1015 mb)
Calm 0.06 in
(1.52 mm)
4SM
06:15
Overcast
Thunder Storms
61°F / 16°C 59°F / 15°C 94% 29.95 in
(1014 mb)
SE 5.8 mph
(SE 9 kph)
0.02 in
(0.51 mm)
5SM
05:55
Overcast
Thunder Storms
61°F / 16°C 57°F / 14°C 88% 30.01 in
(1016 mb)
SSE 4.6 mph
(SSE 7 kph)
0.32 in
(8.13 mm)
2 1/2SM
05:35
Overcast
Thunder Storms
63°F / 17°C 59°F / 15°C 88% 29.98 in
(1015 mb)
Calm - 3SM
05:15
Overcast
61°F / 16°C 57°F / 14°C 88% 29.98 in
(1015 mb)
S 6.9 mph
(S 11 kph)
- 4SM
04:55
Overcast
61°F / 16°C 57°F / 14°C 88% 29.98 in
(1015 mb)
SE 5.8 mph
(SE 9 kph)
- 5SM
04:35
Overcast
61°F / 16°C 57°F / 14°C 88% 29.98 in
(1015 mb)
SSE 4.6 mph
(SSE 7 kph)
- 5SM
04:15
Overcast
61°F / 16°C 57°F / 14°C 88% 29.98 in
(1015 mb)
SE 4.6 mph
(SE 7 kph)
- 6SM
03:55
Overcast
61°F / 16°C 57°F / 14°C 88% 29.98 in
(1015 mb)
SE 3.5 mph
(SE 6 kph)
- 6SM
03:35
Mostly Cloudy
59°F / 15°C 55°F / 13°C 88% 29.98 in
(1015 mb)
SE 4.6 mph
(SE 7 kph)
- 6SM
03:15
Overcast
61°F / 16°C 55°F / 13°C 83% 30.01 in
(1016 mb)
SSE 6.9 mph
(SSE 11 kph)
- 7SM
02:55
Overcast
61°F / 16°C 55°F / 13°C 83% 30.04 in
(1017 mb)
SSE 4.6 mph
(SSE 7 kph)
- 8SM
02:35
Overcast
61°F / 16°C 55°F / 13°C 83% 30.04 in
(1017 mb)
SSE 4.6 mph
(SSE 7 kph)
- 8SM
02:15
Mostly Cloudy
61°F / 16°C 55°F / 13°C 83% 30.04 in
(1017 mb)
Calm - 9SM
01:55
Overcast
61°F / 16°C 55°F / 13°C 83% 30.04 in
(1017 mb)
SE 3.5 mph
(SE 6 kph)
- 10SM
01:35
Overcast
61°F / 16°C 55°F / 13°C 83% 30.04 in
(1017 mb)
SE 3.5 mph
(SE 6 kph)
- 10SM
01:15
Overcast
61°F / 16°C 55°F / 13°C 83% 30.06 in
(1018 mb)
SE 3.5 mph
(SE 6 kph)
- 10SM
00:55
Overcast
61°F / 16°C 55°F / 13°C 83% 30.06 in
(1018 mb)
SE 3.5 mph
(SE 6 kph)
- 10SM
00:35
Overcast
59°F / 15°C 55°F / 13°C 88% 30.06 in
(1018 mb)
SE 3.5 mph
(SE 6 kph)
- 10SM
00:15
Overcast
59°F / 15°C 55°F / 13°C 88% 30.06 in
(1018 mb)
SE 3.5 mph
(SE 6 kph)
- 10SM
Time Weather Temperature Dewpoint Humidity Pressure Winds Precip Visibility


Weather for websites

WeatherForYou.com, LLC is not responsible for any damages or problems caused by this service. Current weather conditions are obtained from the closest station including government and personal stations which may have varying degrees of accuracy. Weather forecasts are derived from the NOAA NDFD. Like all things, this site belongs to Jesus Christ... He just trusts me to maintain it. If you have any questions or comments email webmaster@weatherforyou.com

Copyright © 2014, WeatherForYou.com LLC. All rights reserved.